STARLINK-1649

decayed
NORAD ID: 46552 Int'l Des: 2020-070 Owner: SPXS Country: US Constellation: starlink
LEOCIRCULAR
グループ

STARLINK-1649について

説明を読み込み中...

高度履歴

Altitude vs Time

uPlot chart will show altitude changes over time

軌道要素

1 46552U 20070W 23083.37519219 .13224810 12164-4 29024-2 0 9992
2 46552 53.0042 249.7987 0007459 312.6137 40.6073 16.29633022137883
Epoch: Mar 24, 2023 • Age: 21759 hours

現在のステータス

Position data unavailable
打ち上げ日 Oct 6, 2020
運用期間 4.9 years
落下予定日 Mar 24, 2023
タイプ internet

技術仕様

分類 Payload
質量 260.00 kg
乾燥質量 248.00 kg
総質量 260.00 kg
長さ 0.20 m
直径 2.80 m
スパン 9.00 m
形状 Box + pan
製造者 SPXS
バスタイプ Starlink
フェーズステータス Reentered
所有者/国 SPXS/US

大規模コンステレーション

Loading constellations...